Content
SEND FEEDBACK

Daily
Averages
Monthly
Summary
United States of America

KEARNEY, NEBRASKA


Home > North America > United States > Nebraska
Elevation: 2130 feet     Latitude: 40 43N     Longitude: 099 00W

WEATHER
 
SELECT A DAY
Number of Records: 459,339;   Date Range: 1/1/95 - 9/18/14
 
SHARE

PRINT THIS DATA

[ ← Previous Day ]
WEATHER ALMANAC - JANUARY 31, 2013
[ Next Day → ]
[ °C ]   °F
Weather ElementAverageHighLow
Temperature14 °F21.2 °F (1:55 am) (10:15 am)
Dewpoint4.9 °F15.8 °F (1:55 am)-2.2 °F (4:55 pm)
Humidity66.4 %86 % (2:15 am)45 % (2:35 pm)
Barometer27.93 in30.34 in (9:55 pm) (7:00 pm)
Wind Speed10.2 mph25.3 mph (9:35 am)
Wind Gust31.1 mph (9:35 am)
Weather ElementAverage
Visibility10 mi
Wind DirectionSW (220.9 °)

Weather ElementTotal
Precipitation---
Heating Degree Days54.4 (Base 65)
Averaged from 68 records on January 31, 2013
WEATHER CONDITIONS BREAKOUT
WIND DIRECTION BREAKOUT
WEATHER BY HOUR - JANUARY 31, 2013
[ °C ]   °F
Local TimeTemperatureDewpointHumidityBarometerVisibilityWind DirectionWind SpeedGust SpeedPrecipitationEventsConditions
12:35 AM19.4 °F12.2 °F74 %29.89 in10.0 miNorth (10°)5.8 mphPartly Cloudy
12:55 AM19.4 °F12.2 °F74 %29.89 in10.0 miCalmMostly Cloudy
1:15 AM19.4 °F12.2 °F74 %29.89 in10.0 miCalmOvercast
1:35 AM19.4 °F14.0 °F80 %29.88 in10.0 miNorth (10°)3.5 mphOvercast
1:55 AM21.2 °F15.8 °F80 %29.90 in10.0 miNNW (330°)5.8 mphOvercast
2:15 AM19.4 °F15.8 °F86 %29.91 in10.0 miNNW (340°)5.8 mphOvercast
2:35 AM21.2 °F15.8 °F80 %29.92 in10.0 miNorth (360°)6.9 mphOvercast
2:55 AM19.4 °F15.8 °F86 %29.92 in10.0 miNorth (360°)8.1 mphOvercast
3:15 AM19.4 °F15.8 °F86 %29.93 in10.0 miNorth (10°)10.4 mphOvercast
3:35 AM19.4 °F14.0 °F80 %29.94 in10.0 miNorth (350°)9.2 mphOvercast
3:55 AM19.4 °F14.0 °F80 %29.93 in10.0 miNNE (20°)10.4 mphOvercast
4:15 AM17.6 °F12.2 °F79 %29.95 in10.0 miNorth (350°)11.5 mphOvercast
4:35 AM17.6 °F14.0 °F86 %29.96 in10.0 miNorth (10°)8.1 mphOvercast
4:55 AM17.6 °F12.2 °F79 %29.97 in10.0 miNorth (360°)10.4 mphOvercast
5:15 AM17.6 °F12.2 °F79 %29.97 in10.0 miNorth (350°)11.5 mphOvercast
5:35 AM17.6 °F12.2 °F79 %29.98 in10.0 miNNW (340°)9.2 mphOvercast
5:55 AM17.6 °F12.2 °F79 %29.99 in10.0 miNorth (350°)9.2 mphOvercast
6:15 AM17.6 °F12.2 °F79 %30.00 in10.0 miNorth (350°)9.2 mphOvercast
6:35 AM17.6 °F12.2 °F79 %30.00 in10.0 miNorth (360°)9.2 mphMostly Cloudy
6:55 AM17.6 °F12.2 °F79 %30.01 in10.0 miNorth (360°)10.4 mphOvercast
7:15 AM15.8 °F12.2 °F86 %30.03 in10.0 miNorth (360°)10.4 mphMostly Cloudy
7:35 AM15.8 °F10.4 °F79 %30.05 in10.0 miNorth (360°)13.8 mphOvercast
7:55 AM15.8 °F10.4 °F79 %30.06 in10.0 miNorth (360°)17.3 mphOvercast
8:15 AM15.8 °F8.6 °F73 %30.08 in10.0 miNorth (360°)18.4 mph24.2 mphOvercast
8:35 AM15.8 °F8.6 °F73 %30.09 in10.0 miNorth (360°)15.0 mphOvercast
8:55 AM15.8 °F8.6 °F73 %30.12 in10.0 miNorth (360°)21.9 mphOvercast
9:15 AM14.0 °F6.8 °F73 %30.15 in10.0 miNorth (350°)23.0 mphOvercast
9:35 AM12.2 °F5.0 °F73 %30.17 in10.0 miNorth (360°)25.3 mph31.1 mphOvercast
10:15 AM0.0 °F0.0 °FNorth
10:55 AM14.0 °F1.4 °F57 %30.23 in10.0 miNNW (330°)21.9 mph28.8 mphScattered Clouds
11:15 AM15.8 °F1.4 °F53 %30.24 in10.0 miNNW (340°)23.0 mph28.8 mphScattered Clouds
11:35 AM0.0 °F0.0 °FNorth
11:55 AM0.0 °F0.0 °FNorth
12:15 PM0.0 °F0.0 °FNorth
12:35 PM0.0 °F0.0 °FNorth
12:55 PM15.8 °F-0.4 °F49 %30.25 in10.0 miNW (320°)20.7 mph28.8 mph
1:15 PM15.8 °F-0.4 °F49 %30.25 in10.0 miNNW (330°)18.4 mph25.3 mphMostly Cloudy
1:35 PM15.8 °F-0.4 °F49 %30.25 in10.0 miNNW (330°)18.4 mphMostly Cloudy
2:15 PM17.6 °F1.4 °F49 %30.25 in10.0 miNNW (340°)20.7 mphClear
2:35 PM17.6 °F-0.4 °F45 %30.25 in10.0 miNNW (340°)20.7 mph27.6 mphClear
2:55 PM17.6 °F1.4 °F49 %30.25 in10.0 miNNW (330°)20.7 mphClear
3:15 PM17.6 °F1.4 °F49 %30.25 in10.0 miNNW (340°)18.4 mphClear
3:35 PM17.6 °F-0.4 °F45 %30.26 in10.0 miNW (320°)16.1 mph20.7 mphClear
3:55 PM17.6 °F-0.4 °F45 %30.27 in10.0 miNW (320°)15.0 mphClear
4:15 PM17.6 °F-0.4 °F45 %30.27 in10.0 miNW (320°)17.3 mph21.9 mphClear
4:35 PM17.6 °F-0.4 °F45 %30.27 in10.0 miNNW (340°)16.1 mphClear
4:55 PM15.8 °F-2.2 °F45 %30.27 in10.0 miNW (320°)15.0 mphClear
5:15 PM15.8 °F-0.4 °F49 %30.28 in10.0 miNW (320°)10.4 mphScattered Clouds
5:35 PM15.8 °F-2.2 °F45 %30.27 in10.0 miNNW (340°)15.0 mphScattered Clouds
5:55 PM12.2 °F-0.4 °F57 %30.28 in10.0 miNorth (350°)10.4 mphClear
6:15 PM12.2 °F-0.4 °F57 %30.28 in10.0 miNorth (350°)9.2 mphClear
6:35 PM10.4 °F-0.4 °F62 %30.28 in10.0 miNorth (10°)9.2 mphClear
6:55 PM8.6 °F-0.4 °F67 %30.28 in10.0 miNorth (350°)6.9 mphClear
7:15 PM10.4 °F-2.2 °F57 %30.30 in10.0 miNNW (330°)3.5 mphClear
7:35 PM10.4 °F-0.4 °F62 %30.30 in10.0 miWNW (300°)3.5 mphClear
7:55 PM8.6 °F-0.4 °F67 %30.30 in10.0 miNorth (350°)4.6 mphPartly Cloudy
8:15 PM8.6 °F-0.4 °F67 %30.30 in10.0 miCalmMostly Cloudy
8:35 PM8.6 °F-2.2 °F62 %30.31 in10.0 miNorth (10°)3.5 mphScattered Clouds
8:55 PM10.4 °F-2.2 °F57 %30.32 in10.0 miCalmScattered Clouds
9:15 PM8.6 °F-0.4 °F67 %30.32 in10.0 miCalmMostly Cloudy
9:35 PM8.6 °F-0.4 °F67 %30.33 in10.0 miCalmOvercast
9:55 PM10.4 °F1.4 °F67 %30.34 in10.0 miCalmOvercast
10:15 PM10.4 °F1.4 °F67 %30.32 in10.0 miCalmOvercast
10:35 PM10.4 °F-0.4 °F62 %30.32 in10.0 miCalmOvercast
10:55 PM10.4 °F-0.4 °F62 %30.32 in10.0 miCalmOvercast
11:15 PM10.4 °F-0.4 °F62 %30.31 in10.0 miCalmOvercast
11:35 PM10.4 °F1.4 °F67 %30.30 in10.0 miCalmOvercast
11:55 PM10.4 °F3.2 °F73 %30.30 in10.0 miSSW (200°)4.6 mphOvercast
Hourly data recorded from KEAR, located miles away from Kearney, Nebraska







STORIES FROM OUR PARTNERS